CAPE
0 0 0 0 0 0 0 0 0 0 0 0 0 0 0 0 0 0 0 0 0 0 0 0 0 0 0 0 0 0 0 0 0 0 0 0 0 0 0 0 0 0 0
0 0 0 0 0 0 0 0 0 0 0 0 0 0 0 0 0 0 0 0 0 0 0 0 0 0 0 0 0 0 0 0 0 0 0 0 0 0 0 0 0 0 0
0 0 0 0 0 0 0 0 0 0 0 0 0 0 0 0 0 0 0 0 0 0 0 0 0 0 0 0 0 0 0 0 0 0 0 0 0 0 0 0 0 0 0
0 0 0 0 0 0 0 0 0 0 0 0 0 0 0 0 0 0 0 0 0 0 0 0 0 0 0 0 0 0 0 0 0 0 0 0 0 0 0 0 0 0 0
0 0 0 0 0 0 0 0 0 0 0 0 0 0 0 0 0 0 0 0 0 0 0 0 0 0 0 0 0 0 0 0 0 0 0 0 0 0 2 0 0 0 0
0 0 0 0 0 0 0 0 0 0 0 0 0 0 0 0 0 0 0 0 0 0 0 0 0 0 0 0 0 0 0 0 0 0 0 0 0 0 0 0 0 0 0
0 0 0 0 0 0 0 0 0 0 0 0 0 0 0 0 0 0 0 0 0 0 0 0 0 0 0 0 0 0 0 0 0 0 0 0 0 0 0 0 2 0 0
0 0 0 0 0 0 0 0 0 0 0 0 0 0 0 0 0 0 0 0 0 0 0 0 0 0 0 0 0 0 0 0 0 0 0 0 0 0 0 0 2 1 0
0 0 0 0 0 0 0 0 0 0 0 0 0 0 0 0 0 0 0 0 0 0 0 0 0 0 0 0 0 0 0 0 0 0 0 0 0 0 0 1 2 4 1
0 0 0 0 0 0 0 0 0 0 0 0 0 0 0 0 0 0 0 0 0 0 0 0 0 0 0 0 0 0 0 0 0 0 0 0 0 0 0 0 0 0 2
0 0 0 0 0 0 0 0 0 0 0 0 0 0 0 0 0 0 0 0 0 0 0 0 0 0 0 0 0 0 0 0 0 0 0 0 0 0 0 0 0 0 1
0 0 0 0 0 0 0 0 0 0 0 0 0 0 0 0 0 0 0 0 0 0 0 0 0 0 0 0 0 0 0 0 0 0 0 0 0 0 0 0 0 0 0
0 0 0 0 0 0 0 0 0 0 0 0 0 0 0 0 0 0 0 0 0 0 0 0 0 0 0 0 0 0 0 0 0 0 0 0 0 0 0 0 0 0 0
0 0 0 0 0 0 0 0 0 0 0 0 0 0 0 0 0 0 0 0 0 0 0 0 0 0 0 0 0 0 0 0 0 0 0 0 0 0 0 0 0 0 0
0 0 0 0 0 0 0 0 0 0 0 0 0 0 0 0 0 0 0 0 0 0 0 0 0 0 0 0 0 0 0 0 0 0 0 0 1 5 28 16 8 11 1
0 0 0 0 0 0 0 0 0 0 0 0 0 0 0 0 0 0 0 0 0 0 0 0 0 0 0 0 0 1 0 0 0 1 2 3 0 0 3 8 9 12 12
0 0 0 0 0 0 0 0 0 0 0 0 0 0 0 0 0 0 0 0 0 0 0 0 0 0 0 0 0 3 2 1 0 0 0 2 0 0 0 0 1 4 3
0 0 0 0 0 0 0 0 0 0 0 0 0 0 0 0 0 0 0 0 0 0 0 0 0 0 0 0 0 0 1 0 0 0 0 0 0 0 3 2 0 0 0
0 0 0 0 0 0 0 0 0 0 0 0 0 0 0 0 0 0 0 0 0 0 0 0 0 0 0 0 0 1 0 0 0 0 0 0 0 0 16 4 0 0 0
0 0 0 0 0 0 0 0 0 0 0 0 0 0 0 0 0 0 0 0 0 0 0 0 0 0 0 0 0 1 2 0 0 0 0 4 8 10 19 10 6 1 0
0 0 0 0 0 0 0 0 0 0 0 0 0 0 0 0 0 0 0 0 0 0 0 0 0 0 0 0 0 2 3 0 0 0 3 12 6 8 11 22 12 10 2
0 0 0 0 0 0 0 0 0 0 0 0 0 0 0 0 0 0 0 0 0 0 0 0 0 0 0 0 0 2 6 6 1 2 0 0 1 11 11 11 21 30 14
0 0 0 0 0 0 0 0 0 0 0 0 0 0 0 0 0 0 0 0 0 0 0 0 0 0 0 0 0 1 0 2 2 3 11 24 11 9 13 6 0 3 0
0 0 0 0 0 0 0 0 0 0 0 0 0 0 0 0 0 0 0 0 0 0 0 0 0 0 0 0 0 0 0 0 0 5 0 0 11 0 0 0 0 0 0
0 0 0 0 0 0 0 0 0 0 0 0 0 0 0 0 0 0 0 0 0 0 0 0 0 0 0 0 1 3 2 5 19 16 6 0 0 0 0 0 0 0 0
0 0 0 0 0 0 0 0 0 0 0 0 0 0 0 0 0 0 0 0 0 2 5 10 12 11 13 5 4 8 22 23 18 4 0 0 0 0 0 0 0 0 0
CIN
-0 -0 -0 -0 -0 -0 -0 -0 -0 -0 -0 -0 -0 -0 -0 -0 -0 -0 -0 -0 -0 -0 -0 -0 -0 -0 -0 -0 -0 -0 -0 -0 -0 -0 -0 -0 -0 -0 -0 -0 -0 -0 -0
-0 -0 -0 -0 -0 -0 -0 -0 -0 -0 -0 -0 -0 -0 -0 -0 -0 -0 -0 -0 -0 -0 -0 -0 -0 -0 -0 -0 -0 -0 -0 -0 -0 -0 -0 -0 -0 -0 -0 -0 -0 -0 -0
-0 -0 -0 -0 -0 -0 -0 -0 -0 -0 -0 -0 -0 -0 -0 -0 -0 -0 -0 -0 -0 -0 -0 -0 -0 -0 -0 -0 -0 -0 -0 -0 -0 -0 -0 -0 -0 -0 -0 -0 -0 -0 -0
-0 -0 -0 -0 -0 -0 -0 -0 -0 -0 -0 -0 -0 -0 -0 -0 -0 -0 -0 -0 -0 -0 -0 -0 -0 -0 -0 -0 -0 -0 -0 -0 -0 -0 -0 -0 -0 -0 -0 -0 -0 -0 -0
-0 -0 -0 -0 -0 -0 -0 -0 -0 -0 -0 -0 -0 -0 -0 -0 -0 -0 -0 -0 -0 -0 -0 -0 -0 -0 -0 -0 -0 -0 -0 -0 -0 -0 -0 -0 -0 -0 -0 -0 -0 -0 -0
-0 -0 -0 -0 -0 -0 -0 -0 -0 -0 -0 -0 -0 -0 -0 -0 -0 -0 -0 -0 -0 -0 -0 -0 -0 -0 -0 -0 -0 -0 -0 -0 -0 -0 -0 -0 -0 -0 -0 -0 -0 -0 -0
-0 -0 -0 -0 -0 -0 -0 -0 -0 -0 -0 -0 -0 -0 -0 -0 -0 -0 -0 -0 -0 -0 -0 -0 -0 -0 -0 -0 -0 -0 -0 -0 -0 -0 -0 -0 -0 -0 -0 -0 -0 -0 -0
-0 -0 -0 -0 -0 -0 -0 -0 -0 -0 -0 -0 -0 -0 -0 -0 -0 -0 -0 -0 -0 -0 -0 -0 -0 -0 -0 -0 -0 -0 -0 -0 -0 -0 -0 -0 -0 -0 -0 -0 -0 -0 -0
-0 -0 -0 -0 -0 -0 -0 -0 -0 -0 -0 -0 -0 -0 -0 -0 -0 -0 -0 -0 -0 -0 -0 -0 -0 -0 -0 -0 -0 -0 -0 -0 -0 -0 -0 -0 -0 -0 -0 -0 -0 -0 -0
-0 -0 -0 -0 -0 -0 -0 -0 -0 -0 -0 -0 -0 -0 -0 -0 -0 -0 -0 -0 -0 -0 -0 -0 -0 -0 -0 -0 -0 -0 -0 -0 -0 -0 -0 -0 -0 -0 -0 -0 -0 -0 -0
-0 -0 -0 -0 -0 -0 -0 -0 -0 -0 -0 -0 -0 -0 -0 -0 -0 -0 -0 -0 -0 -0 -0 -0 -0 -0 -0 -0 -0 -0 -0 -0 -0 -0 -0 -0 -0 -0 -0 -0 -0 -1 -0
-0 -0 -0 -0 -0 -0 -0 -0 -0 -0 -0 -0 -0 -0 -0 -0 -0 -0 -0 -0 -0 -0 -0 -0 -0 -0 -0 -0 -0 -0 -0 -0 -0 -0 -0 -0 -0 -0 -0 -0 -0 -0 -0
-0 -0 -0 -0 -0 -0 -0 -0 -0 -0 -0 -0 -0 -0 -0 -0 -0 -0 -0 -0 -0 -0 -0 -0 -0 -0 -0 -0 -0 -0 -0 -0 -0 -0 -0 -0 -0 -0 -0 -0 -0 -0 -0
-0 -0 -0 -0 -0 -0 -0 -0 -0 -0 -0 -0 -0 -0 -0 -0 -0 -0 -0 -0 -0 -0 -0 -0 -0 -0 -0 -0 -0 -0 -0 -0 -0 -0 -0 -0 -0 -0 -0 -0 -0 -0 -0
-0 -0 -0 -0 -0 -0 -0 -0 -0 -0 -0 -0 -0 -0 -0 -0 -0 -0 -0 -0 -0 -0 -0 -0 -0 -0 -0 -0 -0 -0 -0 -0 -0 -0 -0 -0 -0 -2 -0 -2 -4 -1 -4
-0 -0 -0 -0 -0 -0 -0 -0 -0 -0 -0 -0 -0 -0 -0 -0 -0 -0 -0 -0 -0 -0 -0 -0 -0 -0 -0 -0 -0 -1 -1 -0 -0 -0 -0 -0 -0 -0 -2 -2 -3 -4 -5
-0 -0 -0 -0 -0 -0 -0 -0 -0 -0 -0 -0 -0 -0 -0 -0 -0 -0 -0 -0 -0 -0 -0 -0 -0 -0 -0 -0 -0 -1 -2 -1 -0 -0 -0 -0 -0 -0 -0 -0 -1 -1 -2
-0 -0 -0 -0 -0 -0 -0 -0 -0 -0 -0 -0 -0 -0 -0 -0 -0 -0 -0 -0 -0 -0 -0 -0 -0 -0 -0 -0 -1 -1 -1 -0 -0 -0 -0 -0 -0 -0 -0 -2 -0 -0 -0
-0 -0 -0 -0 -0 -0 -0 -0 -0 -0 -0 -0 -0 -0 -0 -0 -0 -0 -0 -0 -0 -0 -0 -0 -0 -0 -0 -0 -0 -1 -0 -0 -0 -0 -0 -0 -0 -1 -2 -4 -0 -0 -0
-0 -0 -0 -0 -0 -0 -0 -0 -0 -0 -0 -0 -0 -0 -0 -0 -0 -0 -0 -0 -0 -0 -0 -0 -0 -0 -0 -0 -0 -1 -0 -0 -0 -0 -0 -1 -3 -6 -4 -6 -6 -4 -0
-0 -0 -0 -0 -0 -0 -0 -0 -0 -0 -0 -0 -0 -0 -0 -0 -0 -0 -0 -0 -0 -0 -0 -0 -0 -0 -0 -0 -0 -1 -1 -1 -0 -0 -0 -0 -2 -2 -5 -3 -2 -2 -2
-0 -0 -0 -0 -0 -0 -0 -0 -0 -0 -0 -0 -0 -0 -0 -0 -0 -0 -0 -0 -0 -0 -0 -0 -0 -0 -0 -0 -0 -1 -1 -4 -3 -2 -0 -0 -2 -2 -2 -2 -2 -1 -4
-0 -0 -0 -0 -0 -0 -0 -0 -0 -0 -0 -0 -0 -0 -0 -0 -0 -0 -0 -0 -0 -0 -0 -0 -0 -0 -0 -0 -0 -1 -2 -3 -5 -0 -1 -1 -3 -3 -4 -1 -0 -2 -0
-0 -0 -0 -0 -0 -0 -0 -0 -0 -0 -0 -0 -0 -0 -0 -0 -0 -0 -0 -0 -0 -0 -0 -0 -0 -0 -0 -0 -0 -0 -0 -0 -0 -1 -0 -0 -1 -0 -0 -0 -0 -0 -0
-0 -0 -0 -0 -0 -0 -0 -0 -0 -0 -0 -0 -0 -0 -0 -0 -0 -0 -0 -0 -0 -0 -0 -0 -0 -0 -0 -0 -1 -3 -6 -4 -1 -1 -4 -0 -0 -0 -0 -0 -0 -0 -0
-0 -0 -0 -0 -0 -0 -0 -0 -0 -0 -0 -0 -0 -0 -0 -0 -0 -0 -0 -0 -0 -1 -2 -3 -4 -3 -3 -2 -5 -6 -3 -2 -2 -9 -0 -0 -0 -0 -0 -0 -0 -0 -0
Wind_Speed
14 13 14 15 15 17 17 19 20 22 22 22 23 24 25 26 27 28 30 31 32 33 33 34 35 36 37 38 38 40 41 41 44 44 47 40 38 34 33 35 34 34 35
16 15 15 16 17 17 18 19 20 22 23 24 24 25 26 27 28 30 32 33 35 35 35 36 36 37 37 38 39 40 41 39 41 43 44 48 43 37 41 37 37 36 36
17 17 17 16 17 18 19 19 21 22 24 25 26 27 27 28 30 34 35 35 36 36 36 37 37 38 37 39 39 39 40 42 39 39 37 45 47 53 39 44 40 43 41
18 16 16 17 16 17 18 19 21 23 25 27 28 30 31 33 34 36 36 37 37 37 37 37 37 37 37 39 39 39 39 39 42 38 37 37 43 46 54 44 48 43 47
16 16 17 17 17 17 19 20 22 24 26 28 30 32 33 34 35 37 39 38 38 37 38 38 39 39 39 40 40 40 40 39 40 41 42 42 42 43 49 60 54 53 48
16 16 17 17 17 17 19 21 23 26 28 29 32 33 35 37 38 40 41 41 40 39 39 40 40 39 41 41 41 41 41 41 41 41 41 42 44 48 49 58 59 59 54
16 17 18 18 18 20 22 23 26 29 31 33 34 35 37 38 40 41 42 43 42 41 41 41 40 41 41 41 41 42 42 42 42 42 44 44 45 45 48 54 59 62 60
17 18 18 18 20 22 25 27 30 33 34 35 36 37 38 39 41 41 42 43 43 42 41 41 41 41 41 41 41 42 42 42 43 44 44 45 45 46 48 52 57 64 63
18 18 19 21 22 25 27 30 33 35 36 38 39 41 40 43 44 43 43 43 42 42 41 42 43 42 41 42 42 42 44 43 44 45 45 46 46 47 48 49 51 59 69
21 22 23 24 25 27 30 32 35 38 39 40 41 43 44 44 44 44 44 43 43 42 44 44 44 44 42 42 43 44 44 45 46 46 47 48 49 49 49 50 52 55 62
29 27 27 28 29 31 33 35 37 39 41 42 43 44 45 44 43 44 43 43 43 43 44 44 44 43 43 43 43 44 45 46 47 47 49 51 49 51 51 51 53 56 57
31 30 30 32 33 35 37 39 40 42 43 43 44 44 43 43 44 44 44 43 44 43 43 42 43 42 42 41 42 44 44 46 47 48 49 50 48 51 51 52 54 55 56
36 35 35 36 37 39 41 42 42 43 43 43 43 44 44 44 44 44 44 43 43 43 42 42 42 41 40 40 40 41 42 43 45 46 47 49 48 51 50 51 53 54 55
41 39 39 39 38 39 40 41 43 42 43 44 44 45 45 44 44 43 43 42 41 41 40 40 40 39 39 39 39 40 41 42 43 44 44 46 46 48 49 49 50 51 54
41 40 40 40 40 42 42 42 43 43 43 44 44 44 43 42 41 41 40 38 38 37 38 38 37 38 38 38 37 39 41 43 45 45 45 45 45 47 47 48 49 49 50
42 41 41 42 42 43 44 43 43 42 40 42 42 41 40 40 39 38 38 37 37 37 37 37 37 38 38 38 40 41 43 43 46 48 45 44 47 47 49 49 50 50 52
42 41 42 42 43 43 42 43 42 40 40 40 40 40 40 40 38 38 37 37 37 37 38 38 38 39 39 40 40 41 42 45 47 47 47 46 45 46 45 47 50 51 52
40 42 43 43 43 42 42 42 41 40 39 39 39 39 38 38 37 37 37 37 37 38 39 40 40 40 39 40 41 43 44 45 45 45 45 45 46 44 45 47 48 48 47
39 43 43 42 42 40 40 40 40 39 38 38 38 37 37 37 37 37 37 38 38 39 40 40 39 40 41 42 43 45 44 45 45 44 43 43 45 46 48 48 49 50 50
38 42 41 41 39 38 36 39 38 36 35 36 36 35 34 35 36 37 38 38 38 41 40 41 40 41 44 43 44 43 42 45 45 44 43 44 47 49 49 49 48 52 52
41 40 40 40 38 37 38 37 35 35 34 34 33 33 33 35 35 37 38 40 41 41 41 42 41 41 41 42 42 42 42 43 44 45 45 42 47 49 51 51 50 50 52
40 40 41 40 38 37 37 37 35 34 32 32 32 31 30 33 33 37 40 40 40 41 41 42 43 40 39 39 40 42 44 46 46 46 45 46 49 50 51 52 54 55 55
40 39 39 40 38 37 36 37 36 34 32 32 30 29 30 29 33 38 39 39 37 38 41 40 42 41 38 37 38 42 46 46 44 44 47 49 50 50 51 46 52 53 49
36 35 36 36 37 36 36 35 35 33 33 31 29 28 30 31 32 33 34 35 36 36 37 37 38 37 38 37 34 39 41 44 44 46 46 47 47 47 49 48 46 43 43
33 32 32 33 33 34 35 35 34 34 34 31 30 29 29 29 30 32 32 32 31 31 33 32 32 35 40 32 42 45 43 43 44 46 44 42 43 44 45 45 45 45 45
34 33 32 32 31 32 33 33 33 33 33 32 31 29 28 26 26 29 33 31 35 35 37 38 37 36 42 45 45 45 45 44 44 43 42 43 43 44 45 46 47 45 44
Wind_Direction
295 303 308 312 316 319 320 322 324 326 327 325 323 324 327 330 333 333 332 331 331 329 329 326 324 323 321 320 319 315 313 310 311 303 300 299 299 299 301 301 301 299 297
286 294 301 305 309 312 316 319 321 324 326 327 325 324 324 325 328 329 330 329 327 326 324 323 322 322 320 319 318 317 312 310 314 306 300 293 294 294 295 299 298 298 298
279 285 292 299 304 307 311 314 318 321 325 326 326 325 323 322 322 323 324 325 325 324 323 322 321 320 320 318 317 317 315 310 311 312 305 295 289 293 291 292 294 295 295
281 285 290 295 301 305 311 314 317 319 321 323 323 322 319 317 318 319 321 322 323 323 322 321 320 319 319 317 316 316 315 313 309 309 308 303 297 292 286 288 291 292 291
276 282 289 295 301 305 309 313 316 318 319 320 320 318 316 316 316 317 318 319 320 321 320 320 318 317 316 315 314 313 312 311 309 307 304 302 300 295 289 285 286 288 289
280 286 294 298 300 307 310 313 313 315 317 318 318 317 315 314 314 314 315 316 317 317 317 317 316 316 315 314 313 312 311 310 307 305 304 301 297 294 292 288 287 284 286
280 286 291 293 297 302 307 311 312 311 314 314 314 315 313 313 311 312 312 313 313 314 314 315 315 314 314 313 313 311 310 309 307 305 303 301 297 295 293 291 288 285 284
285 289 291 293 298 302 306 308 309 309 311 312 311 312 312 311 310 310 311 311 311 311 312 312 312 312 312 311 311 310 309 308 307 305 303 301 299 297 293 290 289 286 285
288 290 294 296 299 302 305 307 308 309 309 310 310 309 310 308 307 308 309 309 310 310 310 310 309 309 309 309 309 308 305 306 305 304 303 302 300 298 295 292 289 286 283
295 296 296 298 301 304 306 308 309 308 309 309 310 309 309 308 307 307 307 307 307 308 307 307 307 306 307 307 305 305 305 304 303 302 301 300 299 298 296 293 289 285 283
297 298 298 300 302 304 306 307 308 309 309 309 309 308 308 307 307 306 306 306 306 306 306 305 305 305 305 305 305 304 304 303 302 302 300 299 298 296 295 292 289 286 284
304 301 300 300 301 303 305 306 308 308 309 309 309 308 308 307 306 305 305 305 304 305 305 304 303 304 304 305 305 304 305 304 303 303 301 299 299 296 295 293 289 287 285
306 304 303 302 302 303 304 306 307 308 309 309 308 308 307 307 306 305 305 304 304 303 304 304 303 303 304 304 304 305 304 304 304 304 302 300 298 296 295 293 290 288 286
304 304 303 303 304 305 306 306 307 308 308 308 307 306 306 306 305 305 305 305 305 304 303 303 303 302 303 303 304 304 305 305 305 304 303 301 299 297 295 293 290 288 286
305 305 304 304 304 305 306 306 306 307 308 307 307 307 307 306 306 305 305 305 306 305 304 304 303 303 302 303 304 305 305 305 304 304 303 301 299 297 295 294 292 291 288
306 306 306 305 305 305 306 306 306 307 309 307 307 308 308 307 307 306 306 305 305 305 305 303 303 302 302 303 304 305 305 305 303 303 304 302 300 298 295 293 291 289 287
307 307 307 307 307 307 307 307 308 309 308 308 309 309 308 308 307 306 305 304 304 304 303 302 302 301 302 303 305 306 306 305 304 304 302 301 300 298 296 294 291 289 287
308 309 309 308 309 309 309 308 308 308 308 308 308 309 309 308 307 306 305 304 304 303 302 301 301 301 302 304 305 306 306 306 305 304 301 299 297 297 296 294 292 292 291
308 309 310 309 309 309 310 310 309 308 307 307 307 307 308 307 307 305 304 303 303 302 301 301 301 302 302 304 305 307 307 306 305 304 301 298 295 293 292 293 292 291 291
309 310 311 311 309 309 310 310 309 307 306 307 307 307 306 306 305 304 304 303 302 301 301 300 301 302 302 305 305 307 307 305 304 302 300 296 290 287 288 292 293 291 290
310 311 311 309 308 309 309 308 308 306 306 307 307 306 305 304 304 302 302 302 301 300 300 300 302 303 305 305 306 306 305 304 301 299 295 296 289 285 284 286 291 291 291
312 312 311 309 309 309 308 307 306 308 307 308 307 305 305 305 303 302 302 302 301 300 300 301 301 304 306 306 306 304 302 299 298 295 294 290 283 280 281 285 287 288 290
313 313 311 310 309 309 308 306 306 308 308 309 307 307 308 306 304 303 301 301 301 300 300 301 302 303 307 307 305 303 298 295 295 294 286 280 280 280 283 294 291 293 298
315 314 313 310 309 310 308 306 307 308 308 308 308 309 309 308 307 305 303 301 301 301 301 302 303 305 306 306 308 306 303 294 291 289 288 278 282 288 287 293 301 305 304
317 315 312 311 309 310 309 308 307 307 307 307 308 309 309 309 308 305 303 302 302 302 301 303 304 305 302 307 299 295 297 293 290 285 288 294 294 294 297 301 303 302 303
319 316 313 311 309 309 308 308 307 306 305 306 308 309 310 311 310 308 304 303 300 300 298 297 299 301 293 287 289 287 286 285 283 289 293 289 293 295 299 302 301 306 307